Weather Roundup
Issued by NWS Chicago, IL

Home | Current Version | Previous Version | Text Only | Print | Product List | Glossary On
Versions: 1 2 3 4 5 6 7 8 9 10 11 12 13 14 15 16 17 18 19 20 21 22 23 24 25 26 27 28 29 30 31 32 33 34 35 36 37 38 39 40 41 42 43 44 45 46 47 48 49 50
000
NZUS59 KLOT 282212
HRRLOT

CHICAGO AREA WEATHER ROUNDUP
NATIONAL WEATHER SERVICE CHICAGO/ROMEOVILLE IL
500 PM CDT TUE JUL 28 2015

NOTE: "FAIR" INDICATES FEW OR NO CLOUDS BELOW 12,000 FEET WITH NO
SIGNIFICANT WEATHER AND/OR OBSTRUCTIONS TO VISIBILITY.

* THESE STATIONS ARE NOT UNDER NWS QUALITY CONTROL. THEY ALSO MAY NOT
  REPORT WEATHER SUCH AS PRECIPITATION OR FOG.

ILZ005-006-012>014-019>023-282300-
NORTHEAST ILLINOIS

CITY           SKY/WX    TMP DP  RH WIND       PRES   REMARKS
OHARE          PTSUNNY   89  70  53 SE14      29.87S HX  94
MIDWAY         PTSUNNY   93  67  42 S13       29.86F HX  96
AURORA         PTSUNNY   87  72  60 S3        29.90R HX  93
LANSING*       SUNNY     90  65  44 SE8       29.88F HX  91
JOLIET*        CLOUDY    90  74  58 S7        29.89R HX  98
WAUKEGAN       PTSUNNY   80  69  69 SE7       29.91R HX  83
DUPAGE AIRPORT PTSUNNY   89  69  51 S12       29.89R HX  93
WHEELING       PTSUNNY   86  70  58 SE8       29.89S HX  90
KANKAKEE*      PTSUNNY   89  73  59 SE6       29.90F HX  96
MORRIS*        CLOUDY    86  75  69 S8        29.88S HX  94
LEWIS AIRPORT* PTSUNNY   87  68  53 S9        29.89R HX  90
NORTHERLY IS     N/A     81  70  69 E15         N/A  HX  84
$$

WIZ051-052-058>065-066-070>072-282300-
SOUTHEAST WISCONSIN

CITY           SKY/WX    TMP DP  RH WIND       PRES   REMARKS
MILWAUKEE      CLOUDY    81  66  60 S7        29.92R HX  83
KENOSHA*       CLOUDY    83  69  62 S10       29.92R HX  86
RACINE*        CLOUDY    81  66  60 S8        29.93R HX  83
BURLINGTON     CLOUDY    83  68  60 SE8       29.92R HX  86
WAUKESHA       PTSUNNY   81  66  61 S10       29.93R HX  83
WEST BEND      CLOUDY    81  63  54 SE7       29.92R HX  82
$$

INZ001>003-010>013-019-020-282300-
NORTHWEST INDIANA

CITY           SKY/WX    TMP DP  RH WIND       PRES   REMARKS
GARY*          NOT AVBL
MICHIGAN CITY* NOT AVBL
RENSSELAER*    NOT AVBL
VALPARAISO     MOSUNNY   89  72  56 E9        29.91F HX  96
$$

LMZ740>746-282300-
SOUTHERN LAKE MICHIGAN

STATION/POSITION TIME  SKY/WX   TEMP WIND        PRES    VSBY
                                AIR  DIR/SP/G
                 (UTC)          (F)  (DEG/KT/KT) (MB)    (MI)
HARRISON CRIB    2100            78   90/ 22/ 23   N/A
BURNHAM HARBOR   2200            81  100/ 11/ 15   N/A
CALUMET HARBOR   2100            81   70/ 11/ 14   N/A
BURNS HARBOR     2140            88  110/ 11/ 20 1012.5F
MICHIGAN CITY    2100            81   20/  9/  9   N/A
$$

ABBREVIATIONS USED IN REMARKS
   TC - TEMPERATURE IN CELSIUS
  WCI - WIND CHILL INDEX
   HX - HEAT INDEX
  VSB - VISIBILITY
$$


USA.gov is the U.S. government's official web portal to all federal, state and local government web resources and services.